This is the latest recevied weather packets stored in our database for station/object KC0OOO-WX. If no packets are shown the sender has not sent any weather packets the latest 10 day(s).
| Time | Temp. | Humidity | Pressure | Rain* | Wind** | Luminosity | Snow |
|---|---|---|---|---|---|---|---|
| 1777971124 | 4.44° C | 61% | 1014.9 hPa | 0 mm | - | - | - |
| 1777970524 | 5° C | 60% | 1015.2 hPa | 0 mm | - | - | - |
| 1777969924 | 5° C | 59% | 1015.2 hPa | 0 mm | - | - | - |
| 1777969324 | 5.56° C | 57% | 1015.2 hPa | 0 mm | - | - | - |
| 1777968723 | 5° C | 52% | 1015.2 hPa | 0 mm | - | - | - |
| 1777968123 | 5° C | 56% | 1015.2 hPa | 0 mm | - | - | - |
| 1777967523 | 5° C | 57% | 1015.2 hPa | 0 mm | - | - | - |
| 1777966923 | 5° C | 57% | 1015.2 hPa | 0 mm | - | - | - |
| 1777966323 | 5° C | 58% | 1015.2 hPa | 0 mm | - | - | - |
| 1777965723 | 5° C | 57% | 1015.2 hPa | 0 mm | - | - | - |
| 1777965123 | 5° C | 56% | 1015.2 hPa | 0 mm | - | - | - |
| 1777964523 | 5° C | 54% | 1015.2 hPa | 0 mm | - | - | - |
| 1777963923 | 5.56° C | 55% | 1015.2 hPa | 0 mm | - | - | - |
| 1777963323 | 5.56° C | 54% | 1014.9 hPa | 0 mm | - | - | - |
| 1777962723 | 5.56° C | 54% | 1014.9 hPa | 0 mm | - | - | - |
| 1777962123 | 6.11° C | 53% | 1014.9 hPa | 0 mm | - | - | - |
| 1777961523 | 6.11° C | 51% | 1014.9 hPa | 0 mm | - | - | - |
| 1777960923 | 6.11° C | 52% | 1014.9 hPa | 0 mm | - | - | - |
| 1777960323 | 6.11° C | 51% | 1014.9 hPa | 0 mm | - | - | - |
| 1777959723 | 6.67° C | 51% | 1015.2 hPa | 0 mm | - | - | - |
| 1777959093 | 6.67° C | 50% | 1015.2 hPa | 0 mm | - | - | - |
| 1777958493 | 7.22° C | 48% | 1015.2 hPa | 0 mm | - | - | - |
| 1777957893 | 7.22° C | 47% | 1015.2 hPa | 0 mm | - | - | - |
| 1777957292 | 7.78° C | 46% | 1015.2 hPa | 0 mm | - | - | - |
| 1777956693 | 7.78° C | 46% | 1015.2 hPa | 0 mm | - | - | - |
* Rain latest hour (hover to see other rain measurements)
** Current wind speed in m/s (hover to see current wind gust speed)